Location: Cahas Mountain Overlook
(37.0833°N, 80.1000°W)
Time: 07:11:13
(UTC-04:00)

Tiros 1 - Pass Details

Date: 16 February 2026
Orbit: 618 x 650 km, 48.4° (Epoch: 14 March)

Event Time Altitude Azimuth Distance (km) Brightness Sun altitude
Rises 10:50:36 0° 272° (W) 2,899 10.2 35.0°
Reaches altitude 10° 10:53:14 10° 285° (WNW) 1,989 9.4 35.3°
Maximum altitude 10:57:06 26° 343° (NNW) 1,220 8.3 35.7°
Drops below altitude 10° 11:00:56 10° 41° (NE) 1,981 9.6 36.1°
Sets 11:03:34 0° 54° (NE) 2,886 10.4 36.3°
